Location: Frysztak
(49.8373°N, 21.6089°E)
Time: 17:49:46
(UTC+01:00)

ISS - Visible Passes

Search period start: 16 January 2019 00:00
Search period end: 26 January 2019 00:00
Orbit: 404 x 407 km, 51.6° (Epoch: 17 January)

Date Brightness Start Highest point End Pass type
(mag) Time Alt. Az. Time Alt. Az. Time Alt. Az.
22 Jan -1.3 17:54:37 10° SSE 17:54:56 11° SSE 17:54:56 11° SSE visible
23 Jan -1.6 18:36:46 10° SW 18:38:06 20° SSW 18:38:06 20° SSW visible
24 Jan -2.3 17:45:23 10° SSW 17:47:58 22° SE 17:48:29 21° SE visible
24 Jan -0.5 19:20:51 10° WSW 19:21:11 12° WSW 19:21:11 12° WSW visible
25 Jan -1.5 16:54:28 10° S 16:56:13 14° SE 16:57:59 10° ESE visible
25 Jan -3.0 18:28:58 10° SW 18:31:29 45° SSW 18:31:29 45° SSW visible
